Lake Charles, LA

9:36 AM CDT on March 23, 2017 (GMT -0500)
Chennault International

Weather History for KCWF - July, 2013

Change the Weather History Date:

Tuesday, July 23, 2013

  Actual Average Record
Temperature  
Mean Temperature 84 °F -  
Max Temperature 93 °F 90 °F 98 °F (2005)
Min Temperature 78 °F 76 °F 68 °F (2007)
Cooling Degree Days 20    
Growing Degree Days 34 (Base 50)    
Moisture  
Dew Point 75 °F    
Average Humidity 79    
Maximum Humidity 94    
Minimum Humidity 46    
Precipitation  
Precipitation 0.00 in - - ()
Sea Level Pressure  
Sea Level Pressure 30.01 in    
Wind  
Wind Speed 7 mph (SW)    
Max Wind Speed 16 mph    
Max Gust Speed 23 mph    
Visibility 7 miles    
Events      
Averages and records for this station are not official NWS values.
T = Trace of Precipitation, MM = Missing Value Source: NWS Daily Summary

Daily Weather History Graph

Daily Weather History Graph

Search for Another Location

Airport or City:

Trip Planner

Search our weather history database for the weather conditions in past years. The results will help you decide how hot, cold, wet, or windy it might be!

Date:

Astronomy

Jul. 23, 2013 Rise Set
Actual Time 6:25 AM CDT 8:11 PM CDT
Civil Twilight 5:59 AM CDT 8:38 PM CDT
Nautical Twilight 5:27 AM CDT 9:10 PM CDT
Astronomical Twilight 4:53 AM CDT 9:43 PM CDT
Moon 8:52 PM CDT 7:26 AM CDT
Length of Visible Light 14h 38m
Length of Day
13h 45m
Full, 99% of the Moon is Illuminated
Jul 23
Full
Jul 29
Last Quarter
Aug 6
New
Aug 14
First Quarter
Aug 20
Full

Hourly Weather History & Observations

Time (CDT) Temp. Heat Index Dew Point Humidity Pressure Visibility Wind Dir Wind Speed Gust Speed Precip Events Conditions
12:15 AM 81.5 °F 88.3 °F 75.7 °F 83% 30.03 in 7.0 mi SSW 4.6 mph - N/A   Scattered Clouds
12:35 AM 81.9 °F 89.2 °F 76.1 °F 83% 30.03 in 7.0 mi SSW 5.8 mph - N/A   Scattered Clouds
12:55 AM 81.5 °F 88.5 °F 76.3 °F 84% 30.02 in 7.0 mi SSW 5.8 mph - N/A   Scattered Clouds
1:15 AM 81.1 °F 88.2 °F 77.0 °F 87% 30.02 in 7.0 mi SSW 6.9 mph - N/A   Scattered Clouds
1:35 AM 81.1 °F 88.4 °F 77.4 °F 88% 30.02 in 7.0 mi SSW 8.1 mph - N/A   Clear
1:55 AM 81.1 °F 88.9 °F 77.9 °F 90% 30.01 in 7.0 mi SW 8.1 mph - N/A   Clear
2:15 AM 81.5 °F 89.5 °F 77.5 °F 88% 30.01 in 7.0 mi SW 5.8 mph - N/A   Clear
2:35 AM 81.5 °F 89.2 °F 77.4 °F 87% 30.01 in 7.0 mi SW 5.8 mph - N/A   Clear
2:55 AM 81.3 °F 88.7 °F 77.2 °F 87% 30.01 in 7.0 mi SSW 5.8 mph - N/A   Clear
3:15 AM 81.1 °F 88.4 °F 77.4 °F 88% 30.01 in 5.0 mi SW 5.8 mph - N/A   Clear
3:35 AM 81.0 °F 88.1 °F 77.4 °F 89% 30.01 in 5.0 mi SSW 4.6 mph - N/A   Clear
3:55 AM 80.6 °F 87.3 °F 77.4 °F 90% 30.01 in 5.0 mi SSW 5.8 mph - N/A   Clear
4:15 AM 80.2 °F 86.5 °F 77.4 °F 91% 30.01 in 5.0 mi SW 4.6 mph - N/A   Clear
4:35 AM 80.1 °F 86.1 °F 77.5 °F 92% 30.01 in 5.0 mi SW 5.8 mph - N/A   Clear
4:55 AM 80.1 °F 86.1 °F 77.5 °F 92% 30.02 in 5.0 mi SSW 3.5 mph - N/A   Clear
5:15 AM 79.9 °F - 77.4 °F 92% 30.02 in 5.0 mi SSW 4.6 mph - N/A   Clear
5:35 AM 79.9 °F - 77.4 °F 92% 30.02 in 5.0 mi SW 4.6 mph - N/A   Clear
5:55 AM 79.7 °F - 77.4 °F 93% 30.02 in 5.0 mi SSW 4.6 mph - N/A   Clear
6:00 AM 80.6 °F 87.1 °F 77.0 °F 89% 30.02 in 10.0 mi SSW 4.6 mph - N/A   Mostly Cloudy
6:15 AM 79.7 °F - 77.4 °F 93% 30.02 in 5.0 mi SSW 4.6 mph - N/A   Clear
6:35 AM 79.3 °F - 77.4 °F 94% 30.02 in 5.0 mi SSW 4.6 mph - N/A   Clear
6:55 AM 79.2 °F - 77.2 °F 94% 30.02 in 5.0 mi SSW 4.6 mph - N/A   Scattered Clouds
6:58 AM 78.8 °F - 77.0 °F 94% 30.02 in 10.0 mi SSW 4.6 mph - N/A   Scattered Clouds
7:47 AM 82.4 °F 90.9 °F 77.0 °F 84% 30.02 in 7.0 mi SW 5.8 mph - N/A   Scattered Clouds
8:50 AM 84.2 °F 92.3 °F 75.2 °F 74% 30.05 in 7.0 mi SW 13.8 mph 18.4 mph N/A   Scattered Clouds
10:50 AM 89.6 °F 96.2 °F 71.6 °F 55% 30.06 in 7.0 mi SW 15.0 mph 20.7 mph N/A   Mostly Cloudy
11:50 AM 89.6 °F 94.7 °F 69.8 °F 52% 30.06 in 10.0 mi SW 12.7 mph 19.6 mph N/A   Mostly Cloudy
12:50 PM 91.4 °F 95.4 °F 68.0 °F 46% 30.05 in 10.0 mi SW 12.7 mph 23.0 mph N/A   Mostly Cloudy
1:45 PM 91.4 °F 98.4 °F 71.6 °F 52% 30.03 in 10.0 mi SW 11.5 mph 17.3 mph N/A   Mostly Cloudy
2:50 PM 91.4 °F 98.4 °F 71.6 °F 52% 30.01 in 10.0 mi WSW 15.0 mph 21.9 mph N/A   Scattered Clouds
3:59 PM 91.4 °F 98.4 °F 71.6 °F 52% 29.99 in 10.0 mi SW 13.8 mph - N/A   Scattered Clouds
4:50 PM 91.4 °F 98.4 °F 71.6 °F 52% 29.97 in 10.0 mi SW 12.7 mph 20.7 mph N/A   Scattered Clouds
5:50 PM 91.4 °F 100.1 °F 73.4 °F 55% 29.95 in 10.0 mi SW 16.1 mph - N/A   Scattered Clouds
6:50 PM 89.6 °F 98.2 °F 73.4 °F 59% 29.95 in 10.0 mi SSW 13.8 mph - N/A   Partly Cloudy
7:50 PM 86.0 °F 93.4 °F 73.4 °F 66% 29.95 in 10.0 mi SSW 9.2 mph - N/A   Partly Cloudy
8:50 PM 82.4 °F 88.2 °F 73.4 °F 74% 29.94 in 10.0 mi SSW 9.2 mph - N/A   Clear
9:50 PM 82.4 °F 88.2 °F 73.4 °F 74% 29.97 in 10.0 mi SSW 6.9 mph - N/A   Clear
11:15 PM 81.5 °F 87.4 °F 74.3 °F 79% 30.00 in 7.0 mi SW 5.8 mph - N/A   Clear
11:35 PM 81.3 °F 87.0 °F 74.3 °F 79% 29.99 in 7.0 mi SSW 5.8 mph - N/A   Clear
11:55 PM 80.6 °F 85.7 °F 74.3 °F 81% 29.99 in 7.0 mi SSW 5.8 mph - N/A   Clear